This is the latest recevied weather packets stored in our database for station/object W8DRH-13. If no packets are shown the sender has not sent any weather packets the latest 10 day(s).
| Time | Temp. | Humidity | Pressure | Rain* | Wind** | Luminosity | Snow |
|---|---|---|---|---|---|---|---|
| 1778098905 | 12.22° C | 61% | 1009.9 hPa | 0 mm | - | 185 W/m² | - |
| 1778098597 | 12.22° C | 59% | 1010.1 hPa | 0 mm | - | 201 W/m² | - |
| 1778098293 | 12.22° C | 61% | 1010.2 hPa | 0 mm | - | 184 W/m² | - |
| 1778097990 | 12.22° C | 59% | 1010.4 hPa | 0 mm | - | 167 W/m² | - |
| 1778097687 | 12.22° C | 60% | 1010.3 hPa | 0 mm | - | 148 W/m² | - |
| 1778097383 | 12.22° C | 58% | 1010.2 hPa | 0 mm | - | 147 W/m² | - |
| 1778097080 | 12.22° C | 57% | 1010.2 hPa | 0 mm | - | 145 W/m² | - |
| 1778096778 | 12.22° C | 58% | 1010.2 hPa | 0 mm | - | 176 W/m² | - |
| 1778096474 | 12.22° C | 58% | 1010.3 hPa | 0 mm | - | 193 W/m² | - |
| 1778096172 | 12.22° C | 57% | 1010.2 hPa | 0 mm | - | 146 W/m² | - |
| 1778095868 | 12.22° C | 59% | 1009.9 hPa | 0 mm | - | 165 W/m² | - |
| 1778095564 | 12.22° C | 58% | 1009.9 hPa | 0 mm | - | 216 W/m² | - |
| 1778095255 | 12.22° C | 61% | 1010 hPa | 0 mm | - | 135 W/m² | - |
| 1778094952 | 12.22° C | 57% | 1010.1 hPa | 0 mm | - | 145 W/m² | - |
| 1778094647 | 12.78° C | 60% | 1010.2 hPa | 0 mm | - | 210 W/m² | - |
| 1778094345 | 12.22° C | 60% | 1010 hPa | 0 mm | - | 186 W/m² | - |
| 1778094036 | 12.78° C | 61% | 1010 hPa | 0 mm | - | 232 W/m² | - |
| 1778093734 | 12.78° C | 62% | 1010 hPa | 0 mm | - | 193 W/m² | - |
| 1778093430 | 12.22° C | 60% | 1009.9 hPa | 0 mm | - | 209 W/m² | - |
| 1778093128 | 12.22° C | 61% | 1010.1 hPa | 0 mm | - | 236 W/m² | - |
| 1778092825 | 12.78° C | 65% | 1010 hPa | 0 mm | - | 201 W/m² | - |
| 1778092520 | 12.22° C | 63% | 1010.3 hPa | 0 mm | - | 131 W/m² | - |
| 1778092217 | 12.22° C | 66% | 1010.4 hPa | 0 mm | - | 123 W/m² | - |
| 1778091914 | 12.22° C | 63% | 1010.4 hPa | 0 mm | - | 121 W/m² | - |
| 1778091612 | 12.22° C | 61% | 1010.5 hPa | 0 mm | - | 121 W/m² | - |
* Rain latest hour (hover to see other rain measurements)
** Current wind speed in m/s (hover to see current wind gust speed)